Weather History for Newport News, VA

Change the Weather History Date:

Saturday, January 19, 2013

  Actual Average Record
Temperature  
Mean Temperature 40 °F -  
Max Temperature 53 °F 46 °F 70 °F (1951)
Min Temperature 28 °F 28 °F 4 °F (1977)
Degree Days  
Heating Degree Days 24    
Moisture  
Dew Point 26 °F    
Average Humidity 57    
Maximum Humidity 82    
Minimum Humidity 37    
Precipitation  
Precipitation 0.00 in - - ()
Sea Level Pressure  
Sea Level Pressure 30.34 in    
Wind  
Wind Speed 5 mph (SSW)    
Max Wind Speed 14 mph    
Max Gust Speed -    
Visibility 10 miles    
Events      
Averages and records for this station are not official NWS values.
T = Trace of Precipitation, MM = Missing Value Source: NWS Daily Summary

Daily Weather History Graph

Daily Weather History Graph

Search for Another Location

Airport:

Trip Planner

Search our weather history database for the weather conditions in past years. The results will help you decide how hot, cold, wet, or windy it might be!

Date:

Astronomy

Jan. 19, 2013 Rise Set
Actual Time 7:16 AM EST 5:17 PM EST
Civil Twilight 6:48 AM EST 5:45 PM EST
Nautical Twilight 6:17 AM EST 6:16 PM EST
Astronomical Twilight 5:45 AM EST 6:48 PM EST
Moon 11:40 AM EST (1/19) 12:51 AM EST (1/19)
Length of Visible Light 10h 56m
Length of Day
10h 00m
First Quarter, 57% of the Moon is Illuminated
Jan 19
First Quarter
Jan 26
Full
Feb 3
Last Quarter
Feb 10
New
Feb 17
First Quarter

Hourly Weather History & Observations

Time (EST) Temp. Windchill Dew Point Humidity Pressure Visibility Wind Dir Wind Speed Gust Speed Precip Events Conditions
12:54 AM 28.9 °F - - N/A% 30.50 in 9.0 mi Calm Calm - N/A   Clear
1:54 AM 30.0 °F - 21.0 °F 69% 30.51 in 10.0 mi Calm Calm - N/A   Clear
2:54 AM 28.9 °F - 23.0 °F 78% 30.50 in 10.0 mi Calm Calm - N/A   Clear
3:54 AM 28.9 °F - 23.0 °F 78% 30.48 in 10.0 mi Calm Calm - N/A   Clear
4:54 AM 33.1 °F 27.7 °F 24.1 °F 70% 30.47 in 10.0 mi South 5.8 mph - N/A   Clear
5:54 AM 33.1 °F 28.7 °F 24.1 °F 70% 30.45 in 10.0 mi SSW 4.6 mph - N/A   Clear
6:54 AM 28.0 °F - 21.9 °F 78% 30.46 in 10.0 mi Calm Calm - N/A   Clear
7:54 AM 30.0 °F - 25.0 °F 82% 30.46 in 10.0 mi Calm Calm - N/A   Clear
8:54 AM 37.9 °F 32.1 °F 24.1 °F 57% 30.46 in 10.0 mi SW 8.1 mph - N/A   Clear
9:54 AM 41.0 °F 35.2 °F 26.1 °F 55% 30.47 in 10.0 mi SW 9.2 mph - N/A   Clear
10:54 AM 43.0 °F 37.2 °F 28.9 °F 58% 30.44 in 10.0 mi SSW 10.4 mph - N/A   Clear
11:54 AM 46.9 °F - 28.9 °F 50% 30.39 in 10.0 mi SW 10.4 mph - N/A   Clear
12:54 PM 48.9 °F - 28.0 °F 44% 30.34 in 10.0 mi SW 11.5 mph - N/A   Clear
1:54 PM 51.1 °F - 28.0 °F 41% 30.29 in 10.0 mi SSW 12.7 mph - N/A   Clear
2:54 PM 53.1 °F - 27.0 °F 37% 30.25 in 10.0 mi SW 10.4 mph - N/A   Clear
3:54 PM 53.1 °F - 28.0 °F 38% 30.23 in 10.0 mi SSW 13.8 mph - N/A   Clear
4:54 PM 51.1 °F - 30.0 °F 44% 30.22 in 10.0 mi SW 10.4 mph - N/A   Clear
5:54 PM 45.0 °F 41.8 °F 28.9 °F 53% 30.21 in 10.0 mi SSW 5.8 mph - N/A   Clear
6:54 PM 44.1 °F 42.5 °F 28.9 °F 55% 30.20 in 10.0 mi South 3.5 mph - N/A   Clear
7:54 PM 41.0 °F 39.0 °F 19.9 °F 43% 30.20 in 10.0 mi SSW 3.5 mph - N/A   Clear
8:54 PM 45.0 °F 38.9 °F 28.0 °F 52% 30.19 in 10.0 mi SW 12.7 mph - N/A   Clear
9:54 PM 45.0 °F 39.3 °F 28.0 °F 52% 30.17 in 10.0 mi SW 11.5 mph - N/A   Clear
10:54 PM 44.1 °F 38.6 °F 28.0 °F 53% 30.14 in 10.0 mi SW 10.4 mph - N/A   Clear
11:54 PM 43.0 °F 37.7 °F 28.9 °F 58% 30.12 in 10.0 mi SW 9.2 mph - N/A   Clear